Time,TemperatureF,DewpointF,PressureIn,WindDirection,WindDirectionDegrees,WindSpeedMPH,WindSpeedGustMPH,Humidity,HourlyPrecipIn,Conditions,Clouds,dailyrainin,SoftwareType,DateUTC
2013-09-17 00:00:00,83.5,61.8,30.01,South,179,0.0,0.0,48,0.00,,---,0.00,VWS V14.00,2013-09-17 05:00:00,
2013-09-17 00:10:00,83.1,62.0,30.01,South,179,0.0,0.0,49,0.00,,---,0.00,VWS V14.00,2013-09-17 05:10:00,
2013-09-17 00:20:00,83.1,62.0,30.01,South,179,0.0,0.0,49,0.00,,---,0.00,VWS V14.00,2013-09-17 05:20:00,
2013-09-17 00:30:00,82.9,61.8,30.01,South,178,0.0,0.0,49,0.00,,---,0.00,VWS V14.00,2013-09-17 05:30:00,
2013-09-17 00:40:00,82.9,62.4,30.01,South,179,0.0,0.0,50,0.00,,---,0.00,VWS V14.00,2013-09-17 05:40:00,
2013-09-17 00:50:00,82.8,62.2,30.01,South,179,0.0,0.0,50,0.00,,---,0.00,VWS V14.00,2013-09-17 05:50:00,
2013-09-17 01:00:00,82.6,62.1,30.01,South,178,0.0,0.0,50,0.00,,---,0.00,VWS V14.00,2013-09-17 06:00:00,
2013-09-17 01:10:00,82.4,61.9,30.01,South,177,0.0,0.0,50,0.00,,---,0.00,VWS V14.00,2013-09-17 06:10:00,
2013-09-17 01:20:00,82.4,61.9,30.01,South,178,0.0,0.0,50,0.00,,---,0.00,VWS V14.00,2013-09-17 06:20:00,
2013-09-17 01:30:00,82.4,61.9,30.01,South,185,0.0,0.0,50,0.00,,---,0.00,VWS V14.00,2013-09-17 06:30:00,
2013-09-17 01:40:00,82.4,62.5,30.01,South,186,0.0,0.0,51,0.00,,---,0.00,VWS V14.00,2013-09-17 06:40:00,
2013-09-17 01:50:00,82.0,62.1,30.01,South,187,0.0,0.0,51,0.00,,---,0.00,VWS V14.00,2013-09-17 06:50:00,
2013-09-17 02:00:00,81.7,61.8,30.01,South,187,0.0,0.0,51,0.00,,---,0.00,VWS V14.00,2013-09-17 07:00:00,
2013-09-17 02:10:00,81.5,61.7,30.01,South,188,0.0,0.0,51,0.00,,---,0.00,VWS V14.00,2013-09-17 07:10:00,
2013-09-17 02:20:00,81.3,62.0,30.01,South,189,0.0,0.0,52,0.00,,---,0.00,VWS V14.00,2013-09-17 07:20:00,
2013-09-17 02:30:00,81.3,62.0,30.01,South,189,0.0,0.0,52,0.00,,---,0.00,VWS V14.00,2013-09-17 07:30:00,
2013-09-17 02:40:00,81.3,62.0,30.01,South,188,0.0,0.0,52,0.00,,---,0.00,VWS V14.00,2013-09-17 07:40:00,
2013-09-17 02:50:00,81.1,61.9,30.01,South,187,0.0,0.0,52,0.00,,---,0.00,VWS V14.00,2013-09-17 07:50:00,
2013-09-17 03:00:00,81.1,61.9,30.01,South,188,0.0,0.0,52,0.00,,---,0.00,VWS V14.00,2013-09-17 08:00:00,
2013-09-17 03:10:00,81.5,61.7,30.01,South,187,0.0,0.0,51,0.00,,---,0.00,VWS V14.00,2013-09-17 08:10:00,
2013-09-17 03:20:00,81.9,60.8,30.01,SSW,193,0.0,2.7,49,0.00,,---,0.00,VWS V14.00,2013-09-17 08:20:00,
2013-09-17 03:30:00,82.0,60.4,30.01,SSW,199,0.0,2.7,48,0.00,,---,0.00,VWS V14.00,2013-09-17 08:30:00,
2013-09-17 03:40:00,81.9,59.7,30.01,SSW,196,0.0,0.0,47,0.00,,---,0.00,VWS V14.00,2013-09-17 08:40:00,
2013-09-17 03:50:00,81.7,59.5,30.01,SW,222,0.0,0.0,47,0.00,,---,0.00,VWS V14.00,2013-09-17 08:50:00,
2013-09-17 04:00:00,81.3,59.2,30.01,SW,223,0.0,0.0,47,0.00,,---,0.00,VWS V14.00,2013-09-17 09:00:00,
2013-09-17 04:10:00,81.0,58.9,30.01,SW,222,0.0,0.0,47,0.00,,---,0.00,VWS V14.00,2013-09-17 09:10:00,
2013-09-17 04:20:00,80.8,59.3,30.01,SW,223,0.0,0.0,48,0.00,,---,0.00,VWS V14.00,2013-09-17 09:20:00,
2013-09-17 04:30:00,80.6,59.1,30.01,SW,222,0.0,0.0,48,0.00,,---,0.00,VWS V14.00,2013-09-17 09:30:00,
2013-09-17 04:40:00,80.4,59.5,30.01,SW,222,0.0,0.0,49,0.00,,---,0.00,VWS V14.00,2013-09-17 09:40:00,
2013-09-17 04:50:00,80.4,60.1,30.01,SW,220,0.0,0.0,50,0.00,,---,0.00,VWS V14.00,2013-09-17 09:50:00,
2013-09-17 05:00:00,80.1,60.3,30.01,SW,220,0.0,0.0,51,0.00,,---,0.00,VWS V14.00,2013-09-17 10:00:00,
2013-09-17 05:10:00,79.7,60.5,30.01,SW,221,0.0,0.0,52,0.00,,---,0.00,VWS V14.00,2013-09-17 10:10:00,
2013-09-17 05:20:00,79.3,60.7,30.01,SW,219,0.0,0.0,53,0.00,,---,0.00,VWS V14.00,2013-09-17 10:20:00,
2013-09-17 05:30:00,79.0,61.5,30.01,SW,219,0.0,0.0,55,0.00,,---,0.00,VWS V14.00,2013-09-17 10:30:00,
2013-09-17 05:40:00,78.6,61.6,30.01,SW,219,0.0,0.0,56,0.00,,---,0.00,VWS V14.00,2013-09-17 10:40:00,
2013-09-17 05:50:00,78.4,62.0,30.01,SW,220,0.0,0.0,57,0.00,,---,0.00,VWS V14.00,2013-09-17 10:50:00,
2013-09-17 06:00:00,78.3,62.3,30.01,SW,218,0.0,0.0,58,0.00,,---,0.00,VWS V14.00,2013-09-17 11:00:00,
2013-09-17 06:10:00,78.1,62.6,30.01,SW,217,0.0,0.0,59,0.00,,---,0.00,VWS V14.00,2013-09-17 11:10:00,
2013-09-17 06:20:00,77.9,62.9,30.01,SW,217,0.0,0.0,60,0.00,,---,0.00,VWS V14.00,2013-09-17 11:20:00,
2013-09-17 06:30:00,77.7,63.2,30.01,SW,217,0.0,0.0,61,0.00,,---,0.00,VWS V14.00,2013-09-17 11:30:00,
2013-09-17 06:40:00,77.5,63.5,30.01,SW,218,0.0,0.0,62,0.00,,---,0.00,VWS V14.00,2013-09-17 11:40:00,
2013-09-17 06:50:00,77.4,63.3,30.01,SW,218,0.0,0.0,62,0.00,,---,0.00,VWS V14.00,2013-09-17 11:50:00,
2013-09-17 07:00:00,77.2,63.6,30.01,SW,216,0.0,0.0,63,0.00,,---,0.00,VWS V14.00,2013-09-17 12:00:00,
2013-09-17 07:10:00,77.2,64.1,30.01,SW,216,0.0,0.0,64,0.00,,---,0.00,VWS V14.00,2013-09-17 12:10:00,
2013-09-17 07:20:00,77.0,63.9,30.01,SW,216,0.0,0.0,64,0.00,,---,0.00,VWS V14.00,2013-09-17 12:20:00,
2013-09-17 07:30:00,77.0,64.3,30.04,SW,219,0.0,0.0,65,0.00,,---,0.00,VWS V14.00,2013-09-17 12:30:00,
2013-09-17 07:40:00,77.0,64.3,30.04,SW,218,0.0,0.0,65,0.00,,---,0.00,VWS V14.00,2013-09-17 12:40:00,
2013-09-17 07:50:00,77.0,64.8,30.04,SW,219,0.0,0.0,66,0.00,,---,0.00,VWS V14.00,2013-09-17 12:50:00,
2013-09-17 08:00:00,77.4,65.1,30.04,SW,219,0.0,0.0,66,0.00,,---,0.00,VWS V14.00,2013-09-17 13:00:00,
2013-09-17 08:10:00,77.9,66.1,30.04,SW,215,0.0,0.0,67,0.00,,---,0.00,VWS V14.00,2013-09-17 13:10:00,
2013-09-17 08:20:00,78.3,66.0,30.04,SW,218,0.0,0.0,66,0.00,,---,0.00,VWS V14.00,2013-09-17 13:20:00,
2013-09-17 08:30:00,78.8,66.9,30.04,SW,220,0.0,0.0,67,0.00,,---,0.00,VWS V14.00,2013-09-17 13:30:00,
2013-09-17 08:40:00,79.3,67.4,30.04,SW,217,0.0,0.0,67,0.00,,---,0.00,VWS V14.00,2013-09-17 13:40:00,
2013-09-17 08:50:00,80.2,67.9,30.04,SW,216,0.0,0.0,66,0.00,,---,0.00,VWS V14.00,2013-09-17 13:50:00,
2013-09-17 09:00:00,81.0,68.1,30.04,SW,217,0.0,0.0,65,0.00,,---,0.00,VWS V14.00,2013-09-17 14:00:00,
2013-09-17 09:10:00,82.2,68.4,30.04,SW,217,0.0,0.0,63,0.00,,---,0.00,VWS V14.00,2013-09-17 14:10:00,
2013-09-17 09:20:00,82.8,68.4,30.04,SW,215,0.0,0.0,62,0.00,,---,0.00,VWS V14.00,2013-09-17 14:20:00,
2013-09-17 09:30:00,83.3,68.5,30.04,SW,218,0.0,0.0,61,0.00,,---,0.00,VWS V14.00,2013-09-17 14:30:00,
2013-09-17 09:40:00,83.5,68.2,30.04,SW,219,0.0,0.0,60,0.00,,---,0.00,VWS V14.00,2013-09-17 14:40:00,
2013-09-17 09:50:00,83.8,68.5,30.04,SW,216,0.0,0.0,60,0.00,,---,0.00,VWS V14.00,2013-09-17 14:50:00,
2013-09-17 10:00:00,84.0,68.2,30.07,SW,218,0.0,0.0,59,0.00,,---,0.00,VWS V14.00,2013-09-17 15:00:00,
2013-09-17 10:10:00,84.4,68.0,30.07,SW,217,0.0,0.0,58,0.00,,---,0.00,VWS V14.00,2013-09-17 15:10:00,
2013-09-17 10:20:00,84.6,67.7,30.07,SW,218,0.0,0.0,57,0.00,,---,0.00,VWS V14.00,2013-09-17 15:20:00,
2013-09-17 10:30:00,85.1,67.7,30.07,SW,218,0.0,0.0,56,0.00,,---,0.00,VWS V14.00,2013-09-17 15:30:00,
2013-09-17 10:40:00,85.3,67.3,30.07,SW,220,0.0,0.0,55,0.00,,---,0.00,VWS V14.00,2013-09-17 15:40:00,
2013-09-17 10:50:00,85.6,67.1,30.07,SW,219,0.0,2.7,54,0.00,,---,0.00,VWS V14.00,2013-09-17 15:50:00,
2013-09-17 11:00:00,86.2,67.1,30.07,SW,215,0.0,0.0,53,0.00,,---,0.00,VWS V14.00,2013-09-17 16:00:00,
2013-09-17 11:10:00,87.3,67.5,30.07,SSW,195,0.0,0.0,52,0.00,,---,0.00,VWS V14.00,2013-09-17 16:10:00,
2013-09-17 11:20:00,88.0,67.0,30.07,SSW,193,0.0,0.0,50,0.00,,---,0.00,VWS V14.00,2013-09-17 16:20:00,
2013-09-17 11:30:00,88.0,65.8,30.07,SSW,192,0.0,0.0,48,0.00,,---,0.00,VWS V14.00,2013-09-17 16:30:00,
2013-09-17 11:40:00,88.2,64.8,30.07,WSW,255,0.0,2.7,46,0.00,,---,0.00,VWS V14.00,2013-09-17 16:40:00,
2013-09-17 11:50:00,88.2,64.8,30.07,South,191,0.0,0.0,46,0.00,,---,0.00,VWS V14.00,2013-09-17 16:50:00,
2013-09-17 12:00:00,88.2,64.2,30.04,South,188,2.7,3.1,45,0.00,,---,0.00,VWS V14.00,2013-09-17 17:00:00,
2013-09-17 12:10:00,88.5,64.5,30.04,SSW,201,0.0,3.1,45,0.00,,---,0.00,VWS V14.00,2013-09-17 17:10:00,
2013-09-17 12:20:00,90.1,65.3,30.04,SSW,202,0.0,2.7,44,0.00,,---,0.00,VWS V14.00,2013-09-17 17:20:00,
2013-09-17 12:30:00,90.9,64.6,30.04,South,190,0.0,2.7,42,0.00,,---,0.00,VWS V14.00,2013-09-17 17:30:00,
2013-09-17 12:40:00,90.7,63.8,30.04,SE,132,0.0,4.9,41,0.00,,---,0.00,VWS V14.00,2013-09-17 17:40:00,
2013-09-17 12:50:00,90.5,63.6,30.04,East,82,0.0,2.7,41,0.00,,---,0.00,VWS V14.00,2013-09-17 17:50:00,
2013-09-17 13:00:00,91.0,62.7,30.04,ESE,114,0.0,5.8,39,0.00,,---,0.00,VWS V14.00,2013-09-17 18:00:00,
2013-09-17 13:10:00,90.9,62.5,30.04,East,88,0.0,5.4,39,0.00,,---,0.00,VWS V14.00,2013-09-17 18:10:00,
2013-09-17 13:20:00,90.9,61.8,30.04,NE,51,0.0,2.7,38,0.00,,---,0.00,VWS V14.00,2013-09-17 18:20:00,
2013-09-17 13:30:00,90.9,61.8,30.01,East,91,0.0,0.0,38,0.00,,---,0.00,VWS V14.00,2013-09-17 18:30:00,
2013-09-17 13:40:00,91.0,61.9,30.01,SSW,194,0.0,2.7,38,0.00,,---,0.00,VWS V14.00,2013-09-17 18:40:00,
2013-09-17 13:50:00,91.4,61.5,30.01,South,189,0.0,6.7,37,0.00,,---,0.00,VWS V14.00,2013-09-17 18:50:00,
2013-09-17 14:00:00,91.2,61.3,30.01,South,190,0.0,4.5,37,0.00,,---,0.00,VWS V14.00,2013-09-17 19:00:00,
2013-09-17 14:10:00,90.7,61.6,30.01,South,189,0.0,3.1,38,0.00,,---,0.00,VWS V14.00,2013-09-17 19:10:00,
2013-09-17 14:20:00,90.3,61.3,30.01,South,190,0.0,4.9,38,0.00,,---,0.00,VWS V14.00,2013-09-17 19:20:00,
2013-09-17 14:30:00,90.1,61.9,30.01,SSW,193,0.0,0.0,39,0.00,,---,0.00,VWS V14.00,2013-09-17 19:30:00,
2013-09-17 14:40:00,90.1,61.9,29.98,South,188,0.0,3.6,39,0.00,,---,0.00,VWS V14.00,2013-09-17 19:40:00,
2013-09-17 14:50:00,90.5,62.2,29.98,South,187,0.0,0.0,39,0.00,,---,0.00,VWS V14.00,2013-09-17 19:50:00,
2013-09-17 15:00:00,91.0,62.7,29.98,SSW,195,0.0,0.0,39,0.00,,---,0.00,VWS V14.00,2013-09-17 20:00:00,
2013-09-17 15:10:00,91.9,63.5,29.98,SSW,209,0.0,0.0,39,0.00,,---,0.00,VWS V14.00,2013-09-17 20:10:00,
2013-09-17 15:20:00,93.0,63.7,29.98,SW,222,0.0,2.7,38,0.00,,---,0.00,VWS V14.00,2013-09-17 20:20:00,
2013-09-17 15:30:00,94.1,63.9,29.98,South,178,0.0,4.5,37,0.00,,---,0.00,VWS V14.00,2013-09-17 20:30:00,
2013-09-17 15:40:00,93.7,62.8,29.95,South,189,0.0,0.0,36,0.00,,---,0.00,VWS V14.00,2013-09-17 20:40:00,
2013-09-17 15:50:00,93.2,62.3,29.95,SSW,198,0.0,0.0,36,0.00,,---,0.00,VWS V14.00,2013-09-17 20:50:00,
2013-09-17 16:00:00,92.7,61.0,29.95,SE,135,0.0,6.3,35,0.00,,---,0.00,VWS V14.00,2013-09-17 21:00:00,
2013-09-17 16:10:00,92.8,61.2,29.95,South,171,0.0,4.0,35,0.00,,---,0.00,VWS V14.00,2013-09-17 21:10:00,
2013-09-17 16:20:00,92.5,60.1,29.95,South,172,0.0,4.0,34,0.00,,---,0.00,VWS V14.00,2013-09-17 21:20:00,
2013-09-17 16:30:00,92.3,59.9,29.95,SSW,197,0.0,0.0,34,0.00,,---,0.00,VWS V14.00,2013-09-17 21:30:00,
2013-09-17 16:40:00,92.1,59.7,29.95,South,188,0.0,2.7,34,0.00,,---,0.00,VWS V14.00,2013-09-17 21:40:00,
2013-09-17 16:50:00,91.9,59.6,29.95,South,187,0.0,0.0,34,0.00,,---,0.00,VWS V14.00,2013-09-17 21:50:00,
2013-09-17 17:00:00,91.8,60.2,29.92,South,187,0.0,2.7,35,0.00,,---,0.00,VWS V14.00,2013-09-17 22:00:00,
2013-09-17 17:10:00,91.9,61.2,29.92,SSE,164,0.0,2.7,36,0.00,,---,0.00,VWS V14.00,2013-09-17 22:10:00,
2013-09-17 17:20:00,91.9,61.2,29.92,SSE,157,0.0,0.0,36,0.00,,---,0.00,VWS V14.00,2013-09-17 22:20:00,
2013-09-17 17:30:00,91.6,60.9,29.92,SSE,161,0.0,2.7,36,0.00,,---,0.00,VWS V14.00,2013-09-17 22:30:00,
2013-09-17 17:40:00,91.4,60.7,29.92,SSE,161,0.0,2.7,36,0.00,,---,0.00,VWS V14.00,2013-09-17 22:40:00,
2013-09-17 17:50:00,91.2,60.6,29.92,SSE,159,0.0,0.0,36,0.00,,---,0.00,VWS V14.00,2013-09-17 22:50:00,
2013-09-17 18:00:00,91.0,60.4,29.92,SSE,161,0.0,0.0,36,0.00,,---,0.00,VWS V14.00,2013-09-17 23:00:00,
2013-09-17 18:10:00,90.9,60.2,29.92,SSE,161,0.0,0.0,36,0.00,,---,0.00,VWS V14.00,2013-09-17 23:10:00,
2013-09-17 18:20:00,90.7,60.1,29.92,SSE,160,0.0,0.0,36,0.00,,---,0.00,VWS V14.00,2013-09-17 23:20:00,
2013-09-17 18:30:00,90.5,60.7,29.92,SSE,156,0.0,0.0,37,0.00,,---,0.00,VWS V14.00,2013-09-17 23:30:00,
2013-09-17 18:40:00,90.1,60.4,29.92,SSE,159,0.0,0.0,37,0.00,,---,0.00,VWS V14.00,2013-09-17 23:40:00,
2013-09-17 18:50:00,89.8,60.8,29.92,SSE,157,0.0,0.0,38,0.00,,---,0.00,VWS V14.00,2013-09-17 23:50:00,
2013-09-17 19:00:00,89.4,60.5,29.92,SSE,160,0.0,0.0,38,0.00,,---,0.00,VWS V14.00,2013-09-18 00:00:00,
2013-09-17 19:10:00,89.1,60.2,29.92,SSE,156,0.0,0.0,38,0.00,,---,0.00,VWS V14.00,2013-09-18 00:10:00,
2013-09-17 19:20:00,88.7,60.6,29.92,SSE,158,0.0,0.0,39,0.00,,---,0.00,VWS V14.00,2013-09-18 00:20:00,
2013-09-17 19:30:00,88.3,60.3,29.92,SSE,160,0.0,0.0,39,0.00,,---,0.00,VWS V14.00,2013-09-18 00:30:00,
2013-09-17 19:40:00,88.2,60.1,29.92,SSE,158,0.0,0.0,39,0.00,,---,0.00,VWS V14.00,2013-09-18 00:40:00,
2013-09-17 19:50:00,87.8,60.5,29.92,SSE,158,0.0,0.0,40,0.00,,---,0.00,VWS V14.00,2013-09-18 00:50:00,
2013-09-17 20:00:00,87.4,60.2,29.92,SSE,160,0.0,0.0,40,0.00,,---,0.00,VWS V14.00,2013-09-18 01:00:00,
2013-09-17 20:10:00,87.1,60.5,29.92,SSE,159,0.0,0.0,41,0.00,,---,0.00,VWS V14.00,2013-09-18 01:10:00,
2013-09-17 20:20:00,86.5,60.7,29.92,SSE,158,0.0,0.0,42,0.00,,---,0.00,VWS V14.00,2013-09-18 01:20:00,
2013-09-17 20:30:00,86.2,60.4,29.95,SSE,159,0.0,0.0,42,0.00,,---,0.00,VWS V14.00,2013-09-18 01:30:00,
2013-09-17 20:40:00,85.8,60.1,29.95,SSE,158,0.0,0.0,42,0.00,,---,0.00,VWS V14.00,2013-09-18 01:40:00,
2013-09-17 20:50:00,85.5,60.4,29.95,SSE,159,0.0,0.0,43,0.00,,---,0.00,VWS V14.00,2013-09-18 01:50:00,
2013-09-17 21:00:00,85.3,60.3,29.95,SSE,158,0.0,0.0,43,0.00,,---,0.00,VWS V14.00,2013-09-18 02:00:00,
2013-09-17 21:10:00,84.9,60.6,29.95,SSE,157,0.0,0.0,44,0.00,,---,0.00,VWS V14.00,2013-09-18 02:10:00,
2013-09-17 21:20:00,84.6,60.9,29.95,SSE,159,0.0,0.0,45,0.00,,---,0.00,VWS V14.00,2013-09-18 02:20:00,
2013-09-17 21:30:00,84.0,61.0,29.95,SSE,160,0.0,0.0,46,0.00,,---,0.00,VWS V14.00,2013-09-18 02:30:00,
2013-09-17 21:40:00,83.7,60.7,29.95,SSE,160,0.0,0.0,46,0.00,,---,0.00,VWS V14.00,2013-09-18 02:40:00,
2013-09-17 21:50:00,83.5,61.2,29.95,SSE,160,0.0,0.0,47,0.00,,---,0.00,VWS V14.00,2013-09-18 02:50:00,
2013-09-17 22:00:00,83.3,61.6,29.95,SSE,159,0.0,0.0,48,0.00,,---,0.00,VWS V14.00,2013-09-18 03:00:00,
2013-09-17 22:10:00,83.1,61.4,29.95,SSE,158,0.0,0.0,48,0.00,,---,0.00,VWS V14.00,2013-09-18 03:10:00,
2013-09-17 22:20:00,83.3,61.6,29.95,SSE,159,0.0,0.0,48,0.00,,---,0.00,VWS V14.00,2013-09-18 03:20:00,
2013-09-17 22:30:00,83.5,61.2,29.95,SSE,160,0.0,0.0,47,0.00,,---,0.00,VWS V14.00,2013-09-18 03:30:00,
2013-09-17 22:40:00,83.7,60.7,29.95,SSE,161,0.0,0.0,46,0.00,,---,0.00,VWS V14.00,2013-09-18 03:40:00,
2013-09-17 22:50:00,83.8,60.9,29.95,SSE,159,0.0,0.0,46,0.00,,---,0.00,VWS V14.00,2013-09-18 03:50:00,
2013-09-17 23:00:00,83.7,60.7,29.98,SSE,160,0.0,0.0,46,0.00,,---,0.00,VWS V14.00,2013-09-18 04:00:00,
2013-09-17 23:10:00,83.7,60.7,29.98,SSE,158,0.0,0.0,46,0.00,,---,0.00,VWS V14.00,2013-09-18 04:10:00,
2013-09-17 23:20:00,83.8,60.9,29.98,SSE,160,0.0,0.0,46,0.00,,---,0.00,VWS V14.00,2013-09-18 04:20:00,
2013-09-17 23:30:00,83.8,60.9,29.95,SSE,159,0.0,0.0,46,0.00,,---,0.00,VWS V14.00,2013-09-18 04:30:00,
2013-09-17 23:40:00,83.8,60.9,29.95,SSE,159,0.0,0.0,46,0.00,,---,0.00,VWS V14.00,2013-09-18 04:40:00,
2013-09-17 23:50:00,83.8,60.9,29.95,SSE,161,0.0,2.7,46,0.00,,---,0.00,VWS V14.00,2013-09-18 04:50:00,